Fairbanks, AK

5:56 PM AKDT on April 21, 2018 (GMT -0800)
Fairbanks International

Weather History for PAFA - October, 2013

Change the Weather History Date:

Tuesday, October 1, 2013

  Actual Average Record
Temperature  
Mean Temperature 35 °F 36 °F  
Max Temperature 38 °F 45 °F 72 °F (2003)
Min Temperature 31 °F 28 °F 12 °F (1914)
Degree Days  
Heating Degree Days 30 29  
Month to date heating degree days 30 29  
Since 1 July heating degree days 919 1023  
Cooling Degree Days 0 0  
Month to date cooling degree days 0 0  
Year to date cooling degree days 226 61  
Moisture  
Dew Point 30 °F    
Average Humidity 82    
Maximum Humidity 92    
Minimum Humidity 64    
Precipitation  
Precipitation T in 0.03 in 0.44 in (1959)
Month to date precipitation T 0.03  
Year to date precipitation 7.54 8.70  
Snow  
Snow 0.00 in 0.20 in 2.40 in (1916)
Month to date snowfall 0.0 0.2  
Since 1 July snowfall 0.7 2.0  
Since 1 September snowfall 0.7 2.0  
Snow Depth 0.00 in    
Sea Level Pressure  
Sea Level Pressure 29.92 in    
Wind  
Wind Speed 1 mph (ENE)    
Max Wind Speed 5 mph    
Max Gust Speed -    
Visibility 7 miles    
Events Snow    
T = Trace of Precipitation, MM = Missing Value Source: NWS Daily Summary

Daily Weather History Graph

Daily Weather History Graph

Search for Another Location

Airport or City:

Astronomy

Oct. 01, 2013 Rise Set
Actual Time 8:02 AM AKDT 7:17 PM AKDT
Civil Twilight 7:13 AM AKDT 8:06 PM AKDT
Nautical Twilight 6:15 AM AKDT 9:03 PM AKDT
Astronomical Twilight 5:13 AM AKDT 10:05 PM AKDT
Moon 3:47 AM AKDT (10/1) 6:12 PM AKDT (10/1)
Length of Visible Light 12h 52m
Length of Day
11h 15m
Waning Crescent, 11% of the Moon is Illuminated
Oct 1
Waning Crescent
Oct 4
New
Oct 11
First Quarter
Oct 18
Full
Oct 26
Last Quarter

Hourly Weather History & Observations

Time (AKDT) Temp. Windchill Dew Point Humidity Pressure Visibility Wind Dir Wind Speed Gust Speed Precip Events Conditions
12:53 AM 33.1 °F - 28.0 °F 82% 29.86 in 10.0 mi Calm Calm - N/A   Mostly Cloudy
1:53 AM 33.1 °F - 28.9 °F 85% 29.87 in 10.0 mi Calm Calm - 0.00 in Snow Light Snow
2:53 AM 32.0 °F - 28.9 °F 88% 29.88 in 10.0 mi Calm Calm - 0.00 in Snow Light Snow
3:53 AM 34.0 °F - 30.0 °F 85% 29.88 in 7.0 mi Calm Calm - 0.00 in Snow Light Snow
4:08 AM 34.0 °F - 30.0 °F 85% 29.86 in 5.0 mi Calm Calm - 0.00 in Snow Light Snow
4:53 AM 33.1 °F 28.7 °F 30.0 °F 89% 29.89 in 6.0 mi East 4.6 mph - 0.00 in Snow Light Snow
5:20 AM 32.0 °F - 30.0 °F 92% 29.87 in 4.0 mi Calm Calm - 0.00 in Snow Light Snow
5:53 AM 32.0 °F 28.7 °F 30.0 °F 92% 29.90 in 3.0 mi East 3.5 mph - 0.00 in Snow Light Snow
6:53 AM 32.0 °F 28.7 °F 28.9 °F 88% 29.90 in 2.0 mi ENE 3.5 mph - 0.00 in Snow Light Snow
7:53 AM 32.0 °F - 30.0 °F 92% 29.91 in 1.5 mi Calm Calm - 0.00 in Snow Light Snow
8:53 AM 32.0 °F 28.7 °F 28.9 °F 88% 29.91 in 1.5 mi ENE 3.5 mph - 0.00 in Snow Light Snow
9:53 AM 33.1 °F 30.0 °F 28.9 °F 85% 29.92 in 1.5 mi ENE 3.5 mph - 0.00 in Snow Light Snow
10:40 AM 33.1 °F - 30.0 °F 89% 29.90 in 2.0 mi Calm Calm - 0.00 in Snow Light Snow
10:53 AM 33.1 °F - 30.0 °F 89% 29.93 in 2.0 mi Calm Calm - 0.00 in Snow Light Snow
11:45 AM 34.0 °F 31.0 °F 30.0 °F 85% 29.91 in 4.0 mi NE 3.5 mph - 0.00 in Snow Light Snow
11:53 AM 34.0 °F - 30.0 °F 85% 29.94 in 4.0 mi Calm Calm - 0.00 in Snow Light Snow
12:25 PM 34.0 °F 31.0 °F 30.0 °F 85% 29.91 in 6.0 mi NE 3.5 mph - 0.00 in Snow Light Snow
12:53 PM 34.0 °F - 30.0 °F 85% 29.94 in 7.0 mi Calm Calm - 0.00 in Snow Light Snow
1:53 PM 36.0 °F - 30.0 °F 79% 29.95 in 7.0 mi Calm Calm - 0.00 in   Overcast
2:34 PM 36.0 °F - 30.0 °F 79% 29.92 in 7.0 mi Calm Calm - N/A   Overcast
2:53 PM 37.0 °F - 30.0 °F 76% 29.95 in 7.0 mi Calm Calm - N/A   Overcast
3:37 PM 37.9 °F 34.4 °F 30.9 °F 76% 29.91 in 10.0 mi South 4.6 mph - N/A   Mostly Cloudy
3:53 PM 37.9 °F - 30.0 °F 73% 29.94 in 10.0 mi Calm Calm - N/A   Mostly Cloudy
4:53 PM 37.9 °F - 30.0 °F 73% 29.93 in 10.0 mi Calm Calm - N/A   Mostly Cloudy
5:53 PM 37.9 °F - 30.0 °F 73% 29.94 in 10.0 mi Calm Calm - N/A   Mostly Cloudy
6:53 PM 37.9 °F - 30.0 °F 73% 29.94 in 10.0 mi Calm Calm - N/A   Mostly Cloudy
7:53 PM 37.0 °F - 30.0 °F 76% 29.94 in 10.0 mi Calm Calm - N/A   Mostly Cloudy
8:53 PM 36.0 °F - 30.0 °F 79% 29.94 in 10.0 mi Calm Calm - N/A   Mostly Cloudy
9:53 PM 36.0 °F - 30.9 °F 82% 29.94 in 10.0 mi Calm Calm - N/A   Mostly Cloudy
10:53 PM 36.0 °F - 30.9 °F 82% 29.94 in 10.0 mi Calm Calm - N/A   Overcast
11:53 PM 35.1 °F 31.0 °F 30.9 °F 85% 29.94 in 10.0 mi NE 4.6 mph - N/A   Overcast